Find ANTELSAT

NORAD ID: 40034 Int'l Des: 2014-033 Owner: FING/ANTEL Country: UY operational
LEOCIRCULARRETROGRADESSO

リアルタイム位置

3D地球を読み込み中...

ANTELSATについて

説明を読み込み中...

次回通過

Passes for default location (London). Set your location on the main map for personalized predictions.

高度履歴

Loading altitude history...

軌道要素

1 40034U 14033AA 26106.37892079 .00002468 00000-0 25477-3 0 9990
2 40034 97.7701 263.1098 0042310 260.6392 99.0041 14.90456214636601
Epoch: Apr 16, 2026 • Age: 22 hours

現在のステータス

高度 587.8 km
速度 7.58 km/s
衛星直下点 -30.47°S, 129.22°E
打ち上げ日 Jun 19, 2014
運用期間 11.8 years
タイプ other

技術仕様

分類 Payload
質量 2.00 kg
乾燥質量 2.00 kg
総質量 2.00 kg
長さ 0.20 m
直径 0.10 m
スパン 0.20 m
形状 Box+boom
製造者 FING
バスタイプ Cubesat 2U
フェーズステータス In Orbit
所有者/国 FING/ANTEL/UY

Most Searched